Weather Roundup
Issued by NWS

Home | Current Version | Previous Version | Graphics & Text | Print | Product List | Glossary Off
Versions: 1 2 3 4 5 6 7 8 9 10 11 12 13 14 15 16 17 18 19 20 21 22 23 24 25 26 27 28 29 30 31 32 33 34 35 36 37 38 39 40 41 42 43 44 45 46 47 48 49 50

000
NZUS93 KARX 190910
HRRWXR

CURRENT HOURLY OBSERVATIONS ACROSS
MUCH OF THE UPPER MISSISSIPPI VALLEY
NATIONAL WEATHER SERVICE LA CROSSE WI
400 AM CDT FRI SEP 19 2014


...SOUTHEAST MINNESOTA...


CITY           SKY/WX    TMP DP  RH WIND       PRES   REMARKS
ROCHESTER      PTCLDY    54  50  86 S14       30.03F
ROCHESTER/MAYO FAIR      56  49  75 SE10G20   30.02F
WINONA         PTCLDY    57  52  82 SE3       30.04F
AUSTIN         CLEAR     54  50  87 S9        30.01F
ALBERT LEA     PTCLDY    57  52  82 S12       29.99F
DODGE CENTER   CLEAR     55  52  88 S13       30.00F
PRESTON        PTCLDY    53  53  99 S10G17    30.04F
OWATONNA       CLEAR     57  52  82 S12       29.98F
FARIBAULT      CLEAR     61  50  67 S12G18    29.97F
$$

...ELSEWHERE IN MINNESOTA...


CITY           SKY/WX    TMP DP  RH WIND       PRES   REMARKS
MINNEAPOLIS    PTCLDY    58  52  80 SE9       29.95F
INTNL FALLS    CLOUDY    56  51  84 VRB7      29.72F
DULUTH         CLOUDY    53  50  89 S9        29.92F FOG
RED WING       PTCLDY    57  52  82 S7        30.00S
REDWOOD FALLS  CLOUDY    61  55  81 S16       29.87F
MANKATO        MOCLDY    57  48  72 S10       29.95S
WORTHINGTON    CLOUDY    59  55  88 S15G28    29.91F
FAIRMONT       PTCLDY    57  48  72 S13       29.95S
$$

...SOUTHWEST WISCONSIN...


CITY           SKY/WX    TMP DP  RH WIND       PRES   REMARKS
LA CROSSE      PTCLDY    58  52  80 S10       30.05F
PRAIRIE DU CHI CLEAR     53  51  92 E3        30.08F FOG
BOSCOBEL       CLEAR     51  48  89 CALM      30.11S FOG
LONE ROCK      CLEAR     53  48  83 E7        30.12S
PLATTEVILLE    CLEAR     50  49  96 CALM      30.12S
FORT MC COY    PTCLDY    55  52  88 S9        30.08F
CAMP DOUGLAS   FOG       45  45 100 E7        30.09F VSB 3/4
VIROQUA        FAIR      51  51 100 SE6       30.08F
WIS DELLS      CLEAR     49  47  93 S3        30.12S FOG
$$

...ELSEWHERE IN WISCONSIN...


CITY           SKY/WX    TMP DP  RH WIND       PRES   REMARKS
MILWAUKEE      PTCLDY    57  55  93 SE6       30.14F FOG
MADISON        CLOUDY    54  52  93 S12       30.14F
GREEN BAY      CLEAR     43  42  97 CALM      30.14S FOG
EAU CLAIRE     MOCLDY    54  51  90 S9        30.02F
BLACK RVR FLS  FAIR      41  41 100 CALM      30.06F FOG
MEDFORD        CLOUDY    50  49  99 S12       30.06F FOG
WAUSAU         FOG       51  51 100 S9        30.09F VSB 1
WIS RAPIDS     CLOUDY    50  49  96 SE5       30.12F FOG
MARSHFIELD     FOG       51  51 100 S9        30.08F VSB 1/2
RICE LAKE      MOCLDY    51  50  95 SE8       30.01F FOG
$$

...NORTHEAST IOWA...


CITY           SKY/WX    TMP DP  RH WIND       PRES   REMARKS
WATERLOO       PTCLDY    54  50  86 SE8       30.05F
DUBUQUE        CLEAR     52  51  97 SE12      30.10F FOG
DECORAH        CLEAR     54  52  94 SE8       30.05F
MASON CITY     PTCLDY    54  51  90 S12       30.03S
CHARLES CITY   PTCLDY    54  50  87 SE8       30.05S
OELWEIN        CLEAR     52  50  93 SE9       30.07F
$$

...ELSEWHERE IN IOWA...


CITY           SKY/WX    TMP DP  RH WIND       PRES   REMARKS
DES MOINES     PTCLDY    57  54  89 S7        30.03S
IOWA CITY      CLEAR     53  50  89 E5        30.09F
FORT DODGE     CLEAR     59  54  82 S10       30.00F
MARSHALLTOWN   PTCLDY    53  50  89 SE7       30.04S
CEDAR RAPIDS   CLEAR     52  50  93 S5        30.07F
$$

...NORTHERN ILLINOIS...


CITY           SKY/WX    TMP DP  RH WIND       PRES   REMARKS
CHICAGO-OHARE  CLEAR     55  52  89 SE7       30.14S
DUPAGE         CLEAR     55  53  93 E3        30.13S FOG
CHICAGO-MIDWAY CLEAR     59  51  75 SE9       30.14S
MOLINE         CLEAR     49  47  93 E6        30.10F FOG
ROCKFORD       CLOUDY    56  55  97 SE3       30.16S FOG
STERLING         N/A     48  45  87 E5        30.12S VSB 1/2
PEORIA         CLEAR     54  49  83 E3        30.11S
$$

NOTE: "FAIR" INDICATES FEW OR NO CLOUDS BELOW 12,000 FEET WITH NO
SIGNIFICANT WEATHER AND/OR OBSTRUCTIONS TO VISIBILITY. WIND
SPEEDS ARE IN MILES-PER-HOUR.



USA.gov is the U.S. government's official web portal to all federal, state and local government web resources and services.